Showing default

FLOCK 4BE 11, 60501

Orbit data source: Space-Track

FLOCK 4BE 11, 60501 is a payload satellite owned by Planet (US) in SSO that was launched on Fri, 16 Aug 2024 UTC via an FALCON 9 launch vehicle from the Air Force Western Test Range (AFWTR). Payload-class satellites include a variety of spacecraft equipped with specific instruments for various scientific and technological missions. These include communications satellites like Starlink; space stations such as the ISS; scientific satellites like the Hubble; Earth observation satellites from companies like Planet Labs, Umbra, and HawkEye 360; GPS; miniature CubeSats for education and research; and military/defense satellites.

Loading next visibility...
Identifier
60501, 2024-149AK
Orbit
SSO
Country
Flag of USUS
Related business
Manufacturer
Planet
Mission
Operational Commercial Imaging
Bus & Motor
CUBESAT 3U, Unknown motor
Mass
5.7 kg wet, 5.7 kg dry
Launch date (UTC)
2024-08-16 (2 years ago)
Launch vehicle
FALCON 9
Launch site
Air Force Western Test Range (AFWTR)
Object type
Payload
Rocket body
Debris
Shape & HBR
Box + 2 Pan, 1.0 m
Radar Cross Section
0.072 m², Medium (>0.1 m² and < 1m²)

Expand to show TLE details & history
Last TLE update: 8 hours ago

TLE from 8 hours ago
0 FLOCK 4BE 11
1 60501U 24149AK  26175.18619046  .00016942  00000-0  38374-3 0  9998
2 60501  97.3705 259.4279 0003136 225.2779 134.8214 15.43175727103436
Epoch: 2026-06-24T04:28Z
TLE epoch observation values (Epoch: 2026-06-24T04:28:06.855Z)
Latitude
-0.00002°
Longitude
-79.94768°
Altitude
441.373 km
Speed
7.646 km/s
True Right ascension
17h 17m 42s
True Declination
0° 00' 00"
Sunlit
Object was in full shadow at epoch
Visualization orbit readout
Latitude
Unknown
Longitude
Unknown
Altitude
Unknown
Speed
Unknown
Apparent Right ascension
Unknown
Apparent Declination
Unknown
Sunlit
N/A
Visualization observer readout
Local Sidereal Time
23:28:35
Azimuth
Unknown
Elevation
Unknown
Doppler factor
Unknown
Orbital elements
Apogee altitude
435.813 km
Perigee altitude
431.541 km
Semi-major axis
6,811.814 km
Eccentricity
0.00031
Inclination
97.3705°
RAAN
259.4279°
Arg. of periapsis
225.2779°
True anomaly
134.84688°
Mean anomaly
134.8214°
Eccentric anomaly
134.83414°
Mean motion
3.86055 °/min
Orbital period
93.25 mins
BSTAR
0.00038374
Loading maneuver chart data...
Computing Atmospheric mass density...
Loading historical data...
Loading historical data...
Loading historical data...
Loading historical data...
Loading historical data...
Loading historical data...
Loading historical data...

Documentation

Showing up to 5 results
|